Погода в Выборге

Погода в Выборге : погода сейчас, прогноз погоды и архив. Всё, что Вы хотите узнать о погоде в Выборге!

Хотите узнать прогноз погоды в Выборге? Тогда Вам сюда: Погода в Выборге

Поиск расширенной информации на нашем сайте:

Другие новости

Новости СМИ2

Главная страница сайта

Новости сайта

03.07.2017

Напоминаем, что на нашем специализированном сайте Метеоцентр.Азия вы можете получить высокодетализированные автоматические прогнозы погоды по пунктам России, СНГ и мира в авиационном формате (включающие направление и скорость ветра, видимость, явления погоды, количество и форму облачности, нижнюю и верхнюю границу облачности).


Погода в Выборге - сегодня

Время (UTC), дата Ветер
(°,м/с) 
Видим.   Явления Облачность Т
(°С)
Тd
(°С)
f(%) Тe
(°С)
Pmin
(гПа)
dP
(гПа)
Po
(мм)
O2
(г/м3)
Тmin Tmax R s Состояние
почвы
15 13.06.18 210 (ЮЗ) н/о    н/о 
+16.8 +4.8 45 +17  1009.3  0.7  756  286           
21 13.06.18 220 (ЮЗ) 20000 м    10/0 средняя 
[Ac und]
+13.2 +5 57 +14  1011.5  1.3  757  290           
00 14.06.18 180 (Ю) 20000 м    9/0 средняя 
[Ac trans]
+13.3 +9.9 80 +14  1012.2  0.7  758  289           
09 14.06.18 200 (Ю) 20000 м    6/6 600 м 
[Cu med, cong]
+18.9 +6.1 43 +19  1014.7  0.5  760  285           
12 14.06.18 240 (ЮЗ) 20000 м    4/4 600 м 
[Cu hum]
+20.6 +6 39 +21  1014.4  -0.3  760  284           
15 14.06.18 230 (ЮЗ) 20000 м    3/3 600 м 
[Cu hum]
+20.8 +2.6 30 +21  1013.9  -0.5  759  284           
21 14.06.18 060 (СВ) 20000 м    3/0 верхняя 
[Ci fib]
+13.4 +6.7 64 +15  1013.8  0.3  759  290           
00 15.06.18 140 (ЮВ) 20000 м    4/0 средняя 
[Ac trans]
+13.6 +7.8 68 +14  1013.7  0.1  759  290           
09 15.06.18 210 (ЮЗ) 20000 м    8/0 средняя 
[Ac trans]
+19.4 +13.4 68 +26  1014.4  0.6  760  283           
12 15.06.18 210 (ЮЗ) 20000 м    6/1 600 м верхняя 
[Cu med, cong|Ci fib]
+21.5 +10.8 50 +23  1014.5  0.6  760  282           
21 15.06.18 210 (ЮЗ) 20000 м    8/0 средняя, верхняя 
[Ac trans|Ci fib]
+17.3 +13.4 78 +24  1016  1.1  761  286           
00 16.06.18 210 (ЮЗ) 20000 м    8/0 средняя, верхняя 
[Ac trans|Ci fib]
+16 +13.3 84 +22  1017.1  1.1  762  287           
09 16.06.18 200 (Ю) 20000 м    4/1 600 м средняя, верхняя 
[Cu med, cong|Ac As|Ci fib]
+20.9 +10.7 52 +23  1018.8  0.3  763  284           
12 16.06.18 200 (Ю) 20000 м    4/1 1000 м средняя, верхняя 
[Cu med, cong|Ac As|Ci fib]
+23 +13.1 54 +28  1018.4  -0.4  763  281           
15 16.06.18 190 (Ю) 20000 м    6/3 1000 м средняя, верхняя 
[Cu med, cong|Ac As|Ci fib]
+22 +12.5 55 +26  1017.6  -0.8  762  282           
21 16.06.18 260 (З) 10 км    4/3 600 м средняя 
[Cu med, cong|Ac As]
+17 +11.3 69 +21  1017.8  0.5  762  287           
00 17.06.18 200 (Ю) 10 км    4/0 средняя 
[Ac As]
+16.3 +13.3 82 +22  1018.4  0.6  763  287           
09 17.06.18 230 (ЮЗ) 20000 м    3/1 600 м средняя 
[Cu med, cong|Ac trans]
+22.6 +10.9 48 +25  1018.4  0.1  763  282           
12 17.06.18 210 (ЮЗ) 20000 м    4/0 средняя 
[Ac trans]
+24.4 +11 43 +27  1017.4  -1  762  280           
15 17.06.18 230 (ЮЗ) 20000 м    9/0 средняя 
[Ac As]
+23.7 +11.6 47 +27  1016.4  -1  761  280           
21 17.06.18 тихо ()   20000 м    4/0 средняя 
[Ac trans]
+18 +12.2 69 +22  1015.4  -0.5  760  285           
00 18.06.18 140 (ЮВ) 20000 м    8/0 средняя 
[Ac trans]
+18.3 +14.6 79 +27  1014.8  -0.6  760  284           
09 18.06.18 210 (ЮЗ) 20000 м    8/3 600 м верхняя 
[Cu med, cong|Ci fib]
+22 +14.8 64 +30  1012.7  -0.8  758  280           
21 18.06.18 240 (ЮЗ) 5{11}  20000 м    9/0 средняя 
[Ac trans]
+16.6 +11.2 70 +19  1010.7  -0.6  757  285           
00 19.06.18 250 (З) 20000 м    4/0 средняя 
[Ac trans]
+15.2 +9.1 67 +15  1010.3  -0.4  757  287           
Время (UTC), дата Ветер
(°,м/с) 
Видим.   Явления Облачность Т
(°С)
Тd
(°С)
f(%) Тe
(°С)
Pmin
(гПа)
dP
(гПа)
Po
(мм)
O2
(г/м3)
Тmin Tmax R s Состояние
почвы

Для получения пояснительной информации подведите курсор к названию столбца.

ПОГОДА в Выборге - архив

Всё, что Вы хотите узнать о погоде в Выборге - удобно и подробно!

Выберите нужную дату (начиная с 1 января 2015* года) и нажмите кнопку "Найти".
Будут отображены архивные сводки погоды по пункту Выборг, начиная с указанной даты.


Отображать данные в формате CSV (для использования в таблицах Excel)


Внимание! Наш архив погоды предназначен исключительно для личного некоммерческого использования в познавательных целях. Если Вам необходимы официальные справки о состоянии погоды (для производственных, юридических, коммерческих и т.п. целей), обращайтесь в органы Росгидромета.

*Примечание: данная дата относится к архиву по метеостанциям СССР (Россия, СНГ, Балтия).
Архив по метеостанциям Зарубежной Европы и Азии (кроме Китая) хранится 10 дней, по другим регионам земного шара (Китай, Африка, Америка, Австралия, Океания) - 1 день.

Выборг - район местоположения метеостанции


Название, широта, долгота, высота метеостанции:
Выборг 60.7°ш. 28.7°д. 13 м над ур. моря [Российская Федерация]

Дополнительная информация

В oтличие oт бoльшинства пoгoдных сайтoв мы публикуем пoдрoбную метеoинфoрмацию в детальнoм прoфессиoнальнoм фoрмате.

Характеристики температуры и влажнoсти вoздуха измеряются на высoте 2 м в тени вдали oт зданий и деревьев.
Скoрoсть ветра измеряется на высoте 10 м (на урoвне рoста челoвека скoрoсть ветра ниже в 1.5-2 раза). Если метеoстанция нахoдится в гoрoде или в лесу, тo скoрoсть ветра занижена на 2-4 м/с пo сравнению с oткрытым местoм. Скoрoсть ветра над акватoриями крупных рек и oзёр, а также на вершинах хoлмoв на 2-5 м/с выше, чем в oбычных услoвиях.
Атмoсфернoе давление в разных тoчках местнoсти мoжет значительнo oтличаться oт давления на метеoстанции, в зависимoсти oт услoвий рельефа (при пoдъёме на 10 м давление пoнижается примернo на 1 мм рт.ст.).